Tracking 22124 objects as of 24-Jan-2021
HD Live streaming from Space Station
objects crossing your sky now

USA 43

Track USA 43 now!
USA 43 is classified as:


NORAD ID: 20202
Int'l Code: 1989-069A
Perigee: 36,210.7 km
Apogee: 36,320.9 km
Inclination: 14.8 °
Period: 1,460.3 minutes
Semi major axis: 42636 km
RCS: Unknown
Launch date: September 4, 1989
Source: United States (US)
Launch site: AIR FORCE EASTERN TEST RANGE (AFETR)
aabbcc
Your satellite tracking list
Your tracking list is empty




NASA's NSSDC Master Catalog

Two Line Element Set (TLE):
1 20202U 89069A   21023.80481378 -.00000132  00000-0  00000-0 0  9992
2 20202  14.7753 351.1761 0012918 226.6248 309.5812  0.98611184  6372
Source of the keplerian elements: McCants